EW0139 Weather Reports


Display with metric or nautical units.
time (UTC)temp
F
wind
direction
speed
MPH
gust
MPH
rain 1hr
in
rain 24hr
in
rain mn
in
humidity
%
barometer
mb
20260831195319 76 274 18.0 32.0 0.00 0.00 0.00 36 1011.1
20260831193741 76 283 30.0 30.0 0.00 0.00 0.00 35 1011.0
20260831192242 76 267 30.0 31.0 0.00 0.00 0.00 36 1011.1
20260831190749 75 270 18.0 32.0 0.00 0.00 0.00 36 1011.1
20260831185254 76 287 21.0 30.0 0.00 0.00 0.00 36 1011.1
20260831183757 75 287 31.0 34.0 0.00 0.00 0.00 37 1010.9
20260831182300 74 275 22.0 31.0 0.00 0.00 0.00 37 1010.9
20260831180742 74 284 25.0 30.0 0.00 0.00 0.00 40 1010.9
20260831175249 74 243 23.0 30.0 0.00 0.00 0.00 40 1010.8
20260831173749 73 234 21.0 32.0 0.00 0.00 0.00 41 1010.9
20260831172249 72 281 28.0 32.0 0.00 0.00 0.00 42 1010.9
20260831170754 71 246 20.0 30.0 0.00 0.00 0.00 43 1010.9
20260831165315 71 252 26.0 29.0 0.00 0.00 0.00 43 1010.7
20260831163755 70 269 25.0 32.0 0.00 0.00 0.00 44 1010.4
20260831162241 70 264 26.0 30.0 0.00 0.00 0.00 44 1010.3
20260831160801 69 269 25.0 29.0 0.00 0.00 0.00 45 1010.1
20260831155246 68 258 19.0 29.0 0.00 0.00 0.00 46 1010.3
20260831153749 67 246 26.0 28.0 0.00 0.00 0.00 47 1010.1
20260831152249 66 230 18.0 29.0 0.00 0.00 0.00 47 1010.0
20260831150753 64 250 14.0 24.0 0.00 0.00 0.00 48 1010.0
20260831145316 62 241 14.0 24.0 0.00 0.00 0.00 49 1009.7
20260831143755 61 261 13.0 29.0 0.00 0.01 0.00 48 1009.5
20260831142239 61 246 14.0 24.0 0.00 0.01 0.00 49 1009.4
20260831140744 61 240 15.0 28.0 0.00 0.01 0.00 48 1009.2
20260831135250 59 224 14.0 22.0 0.00 0.01 0.00 50 1009.1
20260831133751 59 227 19.0 19.0 0.00 0.01 0.00 50 1008.9
20260831132254 58 227 9.0 18.0 0.00 0.01 0.00 51 1008.8
20260831130740 57 200 9.0 17.0 0.00 0.01 0.00 52 1008.9
20260831125300 57 207 13.0 20.0 0.00 0.01 0.00 52 1008.7
20260831123800 57 194 12.0 18.0 0.00 0.02 0.00 53 1008.6
20260831122246 56 223 13.0 18.0 0.00 0.02 0.00 54 1008.6
20260831120748 57 205 15.0 20.0 0.00 0.02 0.00 54 1008.3
20260831115313 58 204 9.0 18.0 0.00 0.02 0.00 52 1008.5
20260831113752 59 218 6.0 17.0 0.00 0.03 0.00 51 1008.3
20260831112258 58 207 7.0 15.0 0.00 0.03 0.00 53 1008.3
20260831110743 58 229 13.0 17.0 0.00 0.03 0.00 53 1008.3
20260831105249 58 258 9.0 15.0 0.00 0.03 0.00 53 1008.4
20260831103753 58 205 16.0 17.0 0.00 0.03 0.00 53 1008.4
20260831102252 57 224 12.0 20.0 0.00 0.03 0.00 53 1008.4
20260831100755 57 217 9.0 18.0 0.00 0.03 0.00 53 1008.5
20260831095241 56 219 10.0 16.0 0.00 0.03 0.00 54 1008.3
20260831093804 55 207 7.0 12.0 0.00 0.03 0.00 55 1008.1
20260831092244 55 213 5.0 11.0 0.00 0.03 0.00 55 1008.0
20260831090749 56 229 6.0 12.0 0.00 0.03 0.00 54 1008.0
20260831085250 55 230 6.0 13.0 0.00 0.03 0.00 55 1008.0
20260831083755 53 191 2.0 4.0 0.00 0.03 0.00 58 1008.0
20260831082257 53 194 4.0 4.0 0.00 0.03 0.00 57 1007.9
20260831080819 53 169 3.0 6.0 0.00 0.03 0.00 57 1008.0
20260831075308 50 189 2.0 2.0 0.00 0.03 0.00 63 1008.8
20260831073749 50 189 0.0 0.0 0.00 0.03 0.00 63 1008.9
20260831072249 51 189 0.0 4.0 0.00 0.03 0.00 61 1009.0
20260831070757 52 189 1.0 2.0 0.00 0.03 0.00 59 1009.3
20260831065240 53 189 1.0 3.0 0.00 0.03 0.00 59 1009.3
20260831063748 53 189 2.0 4.0 0.00 0.03 0.00 58 1009.2
20260831062253 54 189 3.0 5.0 0.00 0.03 0.00 58 1009.4
20260831060815 54 161 1.0 6.0 0.00 0.03 0.00 57 1009.4
20260831055259 54 145 5.0 7.0 0.00 0.03 0.03 58 1009.2
20260831053800 56 138 5.0 6.0 0.00 0.03 0.03 56 1009.4
20260831052241 53 156 1.0 4.0 0.00 0.03 0.03 62 1009.5
20260831050809 54 244 1.0 3.0 0.00 0.03 0.03 59 1009.6
20260831045248 54 244 0.0 0.0 0.00 0.03 0.03 59 1009.6
20260831043747 55 243 0.0 2.0 0.00 0.03 0.03 59 1009.6
20260831042312 55 244 1.0 2.0 0.00 0.03 0.03 58 1009.6
20260831040752 54 244 0.0 1.0 0.00 0.03 0.03 59 1009.5
20260831035257 55 244 0.0 2.0 0.00 0.03 0.03 56 1009.5
20260831033759 57 243 0.0 0.0 0.00 0.03 0.03 52 1009.2
20260831032301 59 244 0.0 0.0 0.00 0.03 0.03 50 1009.4
20260831030747 59 243 0.0 2.0 0.00 0.03 0.03 49 1009.4
20260831025249 60 244 0.0 1.0 0.00 0.03 0.03 48 1009.3
20260831023751 61 243 2.0 3.0 0.00 0.03 0.03 46 1009.0
20260831022258 63 244 0.0 4.0 0.00 0.03 0.03 44 1008.6
20260831020819 63 231 2.0 5.0 0.00 0.03 0.03 45 1008.8
20260831015242 65 273 0.0 2.0 0.00 0.03 0.03 43 1008.6
20260831013741 66 273 0.0 2.0 0.00 0.03 0.03 42 1008.5
20260831012242 67 273 2.0 5.0 0.00 0.03 0.03 41 1008.6
20260831010748 69 273 6.0 9.0 0.00 0.03 0.03 39 1008.6
20260831005248 70 263 9.0 14.0 0.00 0.03 0.03 37 1008.5
20260831003750 70 238 16.0 16.0 0.00 0.03 0.03 39 1008.5
20260831002255 70 247 12.0 17.0 0.00 0.03 0.03 39 1008.4
20260831000815 71 258 13.0 18.0 0.00 0.03 0.03 37 1008.3
20260830235315 71 219 15.0 19.0 0.00 0.03 0.03 37 1008.2
20260830233740 71 231 7.0 14.0 0.00 0.03 0.03 41 1009.1
20260830232246 71 239 10.0 23.0 0.00 0.03 0.03 39 1009.2
20260830230752 70 212 9.0 17.0 0.00 0.03 0.03 46 1009.2
20260830225313 70 236 9.0 13.0 0.00 0.03 0.03 50 1009.3
20260830223753 68 227 7.0 14.0 0.00 0.03 0.03 55 1009.3
20260830222320 67 221 13.0 16.0 0.00 0.03 0.03 55 1009.5
20260830220821 66 256 11.0 17.0 0.00 0.03 0.03 55 1009.8
20260830215305 65 263 11.0 13.0 0.00 0.03 0.03 56 1010.1
20260830213748 64 197 2.0 3.0 0.00 0.03 0.03 56 1008.9
20260830212248 65 197 0.0 10.0 0.00 0.03 0.03 56 1008.9
20260830210749 65 204 10.0 13.0 0.00 0.03 0.03 59 1009.7
20260830205254 65 202 9.0 17.0 0.00 0.03 0.03 59 1010.7
20260830203755 65 175 10.0 18.0 0.00 0.03 0.03 59 1010.6
20260830202240 66 228 7.0 19.0 0.00 0.03 0.03 61 1010.5
20260830200745 66 224 9.0 17.0 0.00 0.03 0.03 57 1009.9